This demonstration page uses our WeatherBlox Daily Observations layout. Learn more.

Left ArrowRight Arrow

Hourly Observations for May 11, 2020

Temp ( °F °C ) Dew Point ( °F °C ) Humidity (%) Winds ( mph kmh ) Pressure ( in mb ) Visibility ( mi km ) Precip ( " mm )
12:15 am 00:15 Cloudy 46 7.5 30 -1.2 54 54 NE 8 13 30.39 1029 10 16.0934 0 0
12:35 am 00:35 Cloudy 46 7.5 29 -1.6 53 53 NE 8 13 30.4 1029 10 16.0934 0 0
12:55 am 00:55 Cloudy 45 7.2 28 -2.1 52 52 NE 9 15 30.4 1029 10 16.0934 0 0
1:15 am 01:15 Cloudy 45 7 28 -2.1 53 53 NE 8 13 30.4 1029 10 16.0934 0 0
1:35 am 01:35 Cloudy 45 7.1 28 -2.2 52 52 NE 8 13 30.4 1029 10 16.0934 0 0
1:55 am 01:55 Cloudy 45 7 28 -2.5 51 51 NE 8 13 30.39 1029 10 16.0934 0 0
2:15 am 02:15 Cloudy 43 6.2 28 -2.3 55 55 NE 7 11 30.4 1029 10 16.0934 0 0
2:35 am 02:35 Partly Cloudy 42 5.3 28 -2.5 58 58 NE 7 11 30.41 1030 10 16.0934 0 0
2:55 am 02:55 Clear 40 4.3 27 -2.7 61 61 NE 8 13 30.42 1030 10 16.0934 0 0
3:15 am 03:15 Clear 38 3.6 27 -2.9 63 63 NE 7 11 30.42 1030 10 16.0934 0 0
3:35 am 03:35 Clear 38 3.4 26 -3.1 63 63 NE 7 11 30.42 1030 10 16.0934 0 0
3:55 am 03:55 Clear 37 2.9 27 -3 66 66 NE 6 9 30.43 1030 10 16.0934 0 0
4:15 am 04:15 Partly Cloudy 38 3.1 27 -2.7 66 66 NE 9 15 30.42 1030 10 16.0934 0 0
4:35 am 04:35 Partly Cloudy 39 3.7 27 -2.7 63 63 NE 9 15 30.42 1030 10 16.0934 0 0
4:55 am 04:55 Mostly Cloudy 38 3.5 28 -2.5 65 65 NE 8 13 30.42 1030 10 16.0934 0 0
5:15 am 05:15 Mostly Cloudy 38 3.5 28 -2.4 66 66 ENE 7 11 30.43 1031 10 16.0934 0 0
5:35 am 05:35 Mostly Cloudy 38 3.5 28 -2.1 67 67 ENE 7 11 30.43 1031 10 16.0934 0 0
5:55 am 05:55 Mostly Cloudy 38 3.3 28 -2 69 69 ENE 8 13 30.43 1031 10 16.0934 0 0
6:15 am 06:15 Mostly Cloudy 38 3.1 28 -2 70 70 ENE 7 11 30.44 1031 10 16.0934 0 0
6:35 am 06:35 Cloudy 39 3.7 29 -1.6 69 69 E 6 9 30.44 1031 10 16.0934 0 0
6:55 am 06:55 Cloudy 40 4.2 29 -1.9 65 65 E 7 11 30.43 1030 10 16.0934 0 0
7:15 am 07:15 Cloudy 40 4.5 29 -1.9 64 64 E 10 17 30.42 1030 10 16.0934 0 0
7:35 am 07:35 Cloudy 41 4.8 29 -1.9 62 62 E 10 17 30.43 1030 10 16.0934 0 0
7:55 am 07:55 Cloudy 41 5 28 -2.1 60 60 E 12 19 30.43 1030 10 16.0934 0 0
8:15 am 08:15 Cloudy 41 5 28 -2.1 60 60 E 10 17 30.43 1030 10 16.0934 0 0
8:35 am 08:35 Cloudy 41 5 28 -2 61 61 E 9 15 30.44 1031 10 16.0934 0 0
8:55 am 08:55 Cloudy 41 5 28 -2.1 60 60 E 9 15 30.44 1031 10 16.0934 0 0
9:15 am 09:15 Cloudy 41 5.1 28 -2.3 59 59 ESE 10 17 30.43 1030 10 16.0934 0 0
9:35 am 09:35 Cloudy 42 5.4 27 -2.6 57 57 E 10 17 30.41 1030 10 16.0934 0 0
9:55 am 09:55 Cloudy 42 5.3 27 -3 55 55 ESE 10 17 30.43 1030 10 16.0934 0 0
10:15 am 10:15 Cloudy 42 5.5 27 -3 55 55 ESE 12 19 30.42 1030 10 16.0934 0 0
10:35 am 10:35 Cloudy 42 5.5 27 -2.9 55 55 SE 10 17 30.41 1030 10 16.0934 0 0
10:55 am 10:55 Cloudy 42 5.7 27 -3 54 54 SE 9 15 30.41 1030 10 16.0934 0 0
11:15 am 11:15 Cloudy 43 5.9 26 -3.1 53 53 SE 9 15 30.41 1030 10 16.0934 0 0
11:35 am 11:35 Cloudy 43 6.1 26 -3.2 52 52 SSE 9 15 30.41 1030 10 16.0934 0 0
11:55 am 11:55 Cloudy 43 6.1 27 -2.9 53 53 SSE 9 15 30.4 1029 10 16.0934 0 0
12:15 pm 12:15 Cloudy 44 6.5 28 -2.5 53 53 SSE 10 17 30.38 1029 10 16.0934 0 0
12:35 pm 12:35 Cloudy 44 6.5 28 -2.4 53 53 SE 7 11 30.38 1029 10 16.0934 0 0
12:55 pm 12:55 Cloudy 44 6.5 28 -2.2 54 54 ESE 9 15 30.37 1029 10 16.0934 0 0
1:15 pm 13:15 Cloudy 44 6.4 28 -2.4 54 54 SE 6 9 30.37 1028 10 16.0934 0 0
1:35 pm 13:35 Cloudy 44 6.5 28 -2.1 55 55 ESE 8 13 30.35 1028 10 16.0934 0 0
1:55 pm 13:55 Cloudy 44 6.6 28 -2 55 55 ESE 8 13 30.34 1028 10 16.0934 0 0
2:15 pm 14:15 Cloudy 44 6.7 28 -2.3 53 53 SE 9 15 30.33 1027 10 16.0934 0 0
2:35 pm 14:35 Cloudy 44 6.7 28 -2 54 54 SE 12 19 30.33 1027 10 16.0934 0 0
2:55 pm 14:55 Cloudy 43 6.2 29 -1.4 59 59 SE 7 11 30.33 1027 10 16.0934 0 0
3:15 pm 15:15 Cloudy 43 6.2 30 -1.3 59 59 ESE 10 17 30.33 1027 10 16.0934 0 0
3:35 pm 15:35 Cloudy 43 6.3 29 -1.4 58 58 SE 9 15 30.31 1026 10 16.0934 0 0
3:55 pm 15:55 Cloudy 44 6.4 29 -1.5 57 57 SE 9 15 30.31 1026 10 16.0934 0 0
4:15 pm 16:15 Cloudy 44 6.5 29 -1.5 57 57 SE 8 13 30.3 1026 10 16.0934 0 0
4:35 pm 16:35 Cloudy 44 6.6 30 -1.1 58 58 S 9 15 30.29 1026 10 16.0934 0 0
4:55 pm 16:55 Cloudy 42 5.8 32 0 67 67 S 8 13 30.29 1026 10 16.0934 0 0
5:15 pm 17:15 Cloudy 42 5.7 32 0 67 67 S 8 13 30.29 1026 10 16.0934 0 0
5:35 pm 17:35 Cloudy 42 5.7 32 0.1 68 68 SSE 7 11 30.28 1025 10 16.0934 0 0
5:55 pm 17:55 Cloudy 42 5.6 32 0.1 68 68 S 7 11 30.28 1025 10 16.0934 0 0
6:15 pm 18:15 Cloudy 42 5.6 32 0.1 68 68 S 8 13 30.28 1025 10 16.0934 0 0
6:35 pm 18:35 Cloudy 42 5.5 33 0.3 69 69 S 8 13 30.27 1025 10 16.0934 0 0
6:55 pm 18:55 Cloudy 42 5.3 33 0.5 71 71 S 9 15 30.27 1025 10 16.0934 0 0
7:15 pm 19:15 Cloudy 41 5.1 33 0.7 74 74 S 8 13 30.27 1025 10 16.0934 0 0
7:35 pm 19:35 Cloudy 40 4.7 34 1 77 77 SSE 7 11 30.27 1025 10 16.0934 0 0
7:55 pm 19:55 Cloudy 40 4.5 34 1 78 78 S 7 11 30.26 1025 10 16.0934 0 0
8:15 pm 20:15 Cloudy 40 4.3 34 1.1 80 80 S 8 13 30.26 1025 10 16.0934 0 0
8:35 pm 20:35 Cloudy 40 4.2 35 1.4 82 82 S 6 9 30.28 1025 10 16.0934 0 0
8:55 pm 20:55 Cloudy 39 4 34 1.2 82 82 S 7 11 30.28 1025 10 16.0934 0 0
9:15 pm 21:15 Cloudy 39 4 35 1.5 84 84 S 8 13 30.29 1026 10 16.0934 0 0
9:35 pm 21:35 Cloudy 39 4 35 1.5 84 84 S 3 6 30.29 1026 10 16.0934 0 0
9:55 pm 21:55 Cloudy 39 3.8 35 1.6 86 86 SSW 3 6 30.3 1026 10 16.0934 0 0
10:15 pm 22:15 Cloudy 39 3.7 35 1.5 86 86 S 6 9 30.3 1026 10 16.0934 0 0
10:35 pm 22:35 Cloudy 39 3.7 35 1.7 87 87 S 5 7 30.3 1026 10 16.0934 0 0
10:55 pm 22:55 Cloudy 38 3.6 35 1.5 86 86 SSE 5 7 30.3 1026 10 16.0934 0 0
11:15 pm 23:15 Cloudy 38 3.5 35 1.4 86 86 S 3 6 30.29 1026 10 16.0934 0 0
11:35 pm 23:35 Cloudy 38 3.4 35 1.4 87 87 S 3 6 30.3 1026 10 16.0934 0 0
11:55 pm 23:55 Cloudy 38 3.5 35 1.5 87 87 Calm 30.29 1026 10 16.0934 0 0

Powered by AerisWeather